Orbital Elements at Epoch 2459200.5 (2020-Dec-17.0) TDB
Reference: JPL 19 (heliocentric ecliptic J2000)
Element | Value | Uncertainty (1-sigma) | Units |
e | .2962944130786107 | 3.5091e-08 | |
a | 4.00838534792228 | 4.4818e-08 | au |
q | 2.820723163866745 | 1.5029e-07 | au |
i | 1.834795537700769 | 4.5133e-06 | deg |
node | 122.8656574952854 | 0.00016323 | deg |
peri | 225.1165631426421 | 0.00016352 | deg |
M | 317.2656164063303 | 1.2526e-05 | deg |
tp | 2459548.458595399924 (2021-Nov-29.95859540) | 0.00010664 | TDB |
period | 2931.248418955281 8.03 | 4.9161e-05 1.346e-07 | d yr |
n | .1228145651770814 | 2.0598e-09 | deg/d |
Q | 5.196047531977815 | 5.8097e-08 | au |
|
| | Orbit Determination Parameters
Additional Information
|